<?xml version='1.0' encoding='UTF-8'?>
<gpx xmlns="http://www.topografix.com/GPX/1/1" creator="www.balnam.be" version="1.1" xmlns:xsi="http://www.w3.org/2001/XMLSchema-instance" xsi:schemaLocation="http://www.topografix.com/GPX/1/1 http://www.topografix.com/GPX/1/1/gpx.xsd">
<trk>
<name>hhoff1</name>
<cmt>v</cmt>
<desc>Fayt-le-Franc Chemin n°1 </desc>
<link href="https://chemins.be/faytlefranc/chemin/1"/><trkseg>
<trkpt lat="50.353939" lon="3.753558"><time>2026-05-02T20:38:02Z</time></trkpt>
<trkpt lat="50.354015" lon="3.752153"><time>2026-05-02T20:48:02Z</time></trkpt>
</trkseg></trk>
<trk>
<name>hhoff1</name>
<cmt>d</cmt>
<desc>Fayt-le-Franc Chemin n°1 </desc>
<link href="https://chemins.be/faytlefranc/chemin/1"/><trkseg>
<trkpt lat="50.354015" lon="3.752153"><time>2026-05-02T20:48:02Z</time></trkpt>
<trkpt lat="50.353289" lon="3.751767"><time>2026-05-02T20:58:02Z</time></trkpt>
</trkseg>
</trk>
<trk>
<name>hhoff10</name>
<cmt>v</cmt>
<desc>Fayt-le-Franc Chemin n°10 </desc>
<link href="https://chemins.be/faytlefranc/chemin/10"/><trkseg>
<trkpt lat="50.353984" lon="3.752217"><time>2026-05-02T20:38:02Z</time></trkpt>
<trkpt lat="50.354881" lon="3.748333"><time>2026-05-02T20:48:02Z</time></trkpt>
<trkpt lat="50.355826" lon="3.748012"><time>2026-05-02T20:58:02Z</time></trkpt>
<trkpt lat="50.356634" lon="3.741038"><time>2026-05-02T21:08:02Z</time></trkpt>
</trkseg>
</trk>
<trk>
<name>hhoff11</name>
<cmt>v</cmt>
<desc>Fayt-le-Franc Chemin n°11 </desc>
<link href="https://chemins.be/faytlefranc/chemin/11"/><trkseg>
<trkpt lat="50.357942" lon="3.780172"><time>2026-05-02T20:38:02Z</time></trkpt>
<trkpt lat="50.357226" lon="3.780680"><time>2026-05-02T20:48:02Z</time></trkpt>
<trkpt lat="50.356139" lon="3.780834"><time>2026-05-02T20:58:02Z</time></trkpt>
</trkseg>
</trk>
<trk>
<name>hhoff12</name>
<cmt>d</cmt>
<desc>Fayt-le-Franc Sentier n°12 </desc>
<link href="https://chemins.be/faytlefranc/sentier/12"/><trkseg>
<trkpt lat="50.354236" lon="3.778664"><time>2026-05-02T20:38:02Z</time></trkpt>
<trkpt lat="50.354072" lon="3.777022"><time>2026-05-02T20:48:02Z</time></trkpt>
</trkseg>
</trk>
<trk>
<name>hhoff14</name>
<cmt>d</cmt>
<desc>Fayt-le-Franc Sentier n°14 </desc>
<link href="https://chemins.be/faytlefranc/sentier/14"/><trkseg>
<trkpt lat="50.357670" lon="3.778991"><time>2026-05-02T20:38:02Z</time></trkpt>
<trkpt lat="50.357871" lon="3.778848"><time>2026-05-02T20:48:02Z</time></trkpt>
<trkpt lat="50.358625" lon="3.778406"><time>2026-05-02T20:58:02Z</time></trkpt>
</trkseg>
</trk>
<trk>
<name>hhoff15</name>
<cmt>d</cmt>
<desc>Fayt-le-Franc Sentier n°15 </desc>
<link href="https://chemins.be/faytlefranc/sentier/15"/><trkseg>
<trkpt lat="50.357088" lon="3.777607"><time>2026-05-02T20:38:02Z</time></trkpt>
<trkpt lat="50.358649" lon="3.778380"><time>2026-05-02T20:48:02Z</time></trkpt>
</trkseg>
</trk>
<trk>
<name>hhoff16</name>
<cmt>d</cmt>
<desc>Fayt-le-Franc Sentier n°16 </desc>
<link href="https://chemins.be/faytlefranc/sentier/16"/><trkseg>
<trkpt lat="50.356825" lon="3.777173"><time>2026-05-02T20:38:02Z</time></trkpt>
<trkpt lat="50.357817" lon="3.776325"><time>2026-05-02T20:48:02Z</time></trkpt>
</trkseg>
</trk>
<trk>
<name>hhoff17</name>
<cmt>v</cmt>
<desc>Fayt-le-Franc Sentier n°17 Rue du Roi Albert</desc>
<link href="https://chemins.be/faytlefranc/sentier/17"/><trkseg>
<trkpt lat="50.356028" lon="3.775744"><time>2026-05-02T20:38:02Z</time></trkpt>
<trkpt lat="50.355034" lon="3.776228"><time>2026-05-02T20:48:02Z</time></trkpt>
</trkseg></trk>
<trk>
<name>hhoff17</name>
<cmt>r</cmt>
<desc>Fayt-le-Franc Sentier n°17 Rue du Roi Albert</desc>
<link href="https://chemins.be/faytlefranc/sentier/17"/><trkseg>
<trkpt lat="50.355034" lon="3.776228"><time>2026-05-02T20:48:02Z</time></trkpt>
<trkpt lat="50.354897" lon="3.775182"><time>2026-05-02T20:58:02Z</time></trkpt>
</trkseg></trk>
<trk>
<name>hhoff17</name>
<cmt>d</cmt>
<desc>Fayt-le-Franc Sentier n°17 Rue du Roi Albert</desc>
<link href="https://chemins.be/faytlefranc/sentier/17"/><trkseg>
<trkpt lat="50.354897" lon="3.775182"><time>2026-05-02T20:58:02Z</time></trkpt>
<trkpt lat="50.354035" lon="3.775461"><time>2026-05-02T21:08:02Z</time></trkpt>
<trkpt lat="50.354035" lon="3.776588"><time>2026-05-02T21:18:02Z</time></trkpt>
</trkseg></trk>
<trk>
<name>hhoff17</name>
<cmt>v</cmt>
<desc>Fayt-le-Franc Sentier n°17 Rue du Roi Albert</desc>
<link href="https://chemins.be/faytlefranc/sentier/17"/><trkseg>
<trkpt lat="50.354035" lon="3.776588"><time>2026-05-02T21:18:02Z</time></trkpt>
<trkpt lat="50.354264" lon="3.778599"><time>2026-05-02T21:28:02Z</time></trkpt>
</trkseg></trk>
<trk>
<name>hhoff17</name>
<cmt>r</cmt>
<desc>Fayt-le-Franc Sentier n°17 Rue du Roi Albert</desc>
<link href="https://chemins.be/faytlefranc/sentier/17"/><trkseg>
<trkpt lat="50.354264" lon="3.778599"><time>2026-05-02T21:28:02Z</time></trkpt>
<trkpt lat="50.354442" lon="3.778599"><time>2026-05-02T21:38:02Z</time></trkpt>
<trkpt lat="50.354599" lon="3.779580"><time>2026-05-02T21:48:02Z</time></trkpt>
</trkseg></trk>
<trk>
<name>hhoff17</name>
<cmt>v</cmt>
<desc>Fayt-le-Franc Sentier n°17 Rue du Roi Albert</desc>
<link href="https://chemins.be/faytlefranc/sentier/17"/><trkseg>
<trkpt lat="50.354599" lon="3.779580"><time>2026-05-02T21:48:02Z</time></trkpt>
<trkpt lat="50.354784" lon="3.780279"><time>2026-05-02T21:58:02Z</time></trkpt>
<trkpt lat="50.355119" lon="3.782827"><time>2026-05-02T22:08:02Z</time></trkpt>
</trkseg>
</trk>
<trk>
<name>hhoff18</name>
<cmt>q</cmt>
<desc>Fayt-le-Franc Sentier n°18 </desc>
<link href="https://chemins.be/faytlefranc/sentier/18"/><trkseg>
<trkpt lat="50.356226" lon="3.774871"><time>2026-05-02T20:38:02Z</time></trkpt>
<trkpt lat="50.356407" lon="3.774952"><time>2026-05-02T20:48:02Z</time></trkpt>
<trkpt lat="50.357417" lon="3.774544"><time>2026-05-02T20:58:02Z</time></trkpt>
<trkpt lat="50.357413" lon="3.774168"><time>2026-05-02T21:08:02Z</time></trkpt>
</trkseg>
</trk>
<trk>
<name>hhoff19</name>
<cmt>v</cmt>
<desc>Fayt-le-Franc Sentier n°19 </desc>
<link href="https://chemins.be/faytlefranc/sentier/19"/><trkseg>
<trkpt lat="50.356807" lon="3.773345"><time>2026-05-02T20:38:02Z</time></trkpt>
<trkpt lat="50.357788" lon="3.773446"><time>2026-05-02T20:48:02Z</time></trkpt>
<trkpt lat="50.358059" lon="3.773723"><time>2026-05-02T20:58:02Z</time></trkpt>
</trkseg>
</trk>
<trk>
<name>hhoff20</name>
<cmt>v</cmt>
<desc>Fayt-le-Franc Sentier n°20 </desc>
<link href="https://chemins.be/faytlefranc/sentier/20"/><trkseg>
<trkpt lat="50.357043" lon="3.772172"><time>2026-05-02T20:38:02Z</time></trkpt>
<trkpt lat="50.357522" lon="3.772389"><time>2026-05-02T20:48:02Z</time></trkpt>
</trkseg></trk>
<trk>
<name>hhoff20</name>
<cmt>q</cmt>
<desc>Fayt-le-Franc Sentier n°20 </desc>
<link href="https://chemins.be/faytlefranc/sentier/20"/><trkseg>
<trkpt lat="50.357522" lon="3.772389"><time>2026-05-02T20:48:02Z</time></trkpt>
<trkpt lat="50.358273" lon="3.772730"><time>2026-05-02T20:58:02Z</time></trkpt>
</trkseg>
</trk>
<trk>
<name>hhoff21</name>
<cmt>r</cmt>
<desc>Fayt-le-Franc Sentier n°21 Rue Neuve</desc>
<link href="https://chemins.be/faytlefranc/sentier/21"/><trkseg>
<trkpt lat="50.355890" lon="3.774474"><time>2026-05-02T20:38:02Z</time></trkpt>
<trkpt lat="50.354805" lon="3.774437"><time>2026-05-02T20:48:02Z</time></trkpt>
</trkseg></trk>
<trk>
<name>hhoff21</name>
<cmt>q</cmt>
<desc>Fayt-le-Franc Sentier n°21 Rue Neuve</desc>
<link href="https://chemins.be/faytlefranc/sentier/21"/><trkseg>
<trkpt lat="50.354805" lon="3.774437"><time>2026-05-02T20:48:02Z</time></trkpt>
<trkpt lat="50.353141" lon="3.773010"><time>2026-05-02T20:58:02Z</time></trkpt>
<trkpt lat="50.351676" lon="3.772538"><time>2026-05-02T21:08:02Z</time></trkpt>
</trkseg>
</trk>
<trk>
<name>hhoff22</name>
<cmt>v</cmt>
<desc>Fayt-le-Franc Sentier n°22 </desc>
<link href="https://chemins.be/faytlefranc/sentier/22"/><trkseg>
<trkpt lat="50.354998" lon="3.772819"><time>2026-05-02T20:38:02Z</time></trkpt>
<trkpt lat="50.356039" lon="3.773077"><time>2026-05-02T20:48:02Z</time></trkpt>
</trkseg>
</trk>
<trk>
<name>hhoff23</name>
<cmt>v</cmt>
<desc>Fayt-le-Franc Sentier n°23 </desc>
<link href="https://chemins.be/faytlefranc/sentier/23"/><trkseg>
<trkpt lat="50.356359" lon="3.771861"><time>2026-05-02T20:38:02Z</time></trkpt>
<trkpt lat="50.356427" lon="3.771172"><time>2026-05-02T20:48:02Z</time></trkpt>
<trkpt lat="50.356300" lon="3.770822"><time>2026-05-02T20:58:02Z</time></trkpt>
<trkpt lat="50.355705" lon="3.769838"><time>2026-05-02T21:08:02Z</time></trkpt>
</trkseg></trk>
<trk>
<name>hhoff23</name>
<cmt>r</cmt>
<desc>Fayt-le-Franc Sentier n°23 </desc>
<link href="https://chemins.be/faytlefranc/sentier/23"/><trkseg>
<trkpt lat="50.355705" lon="3.769838"><time>2026-05-02T21:08:02Z</time></trkpt>
<trkpt lat="50.355377" lon="3.769688"><time>2026-05-02T21:18:02Z</time></trkpt>
</trkseg></trk>
<trk>
<name>hhoff23</name>
<cmt>v</cmt>
<desc>Fayt-le-Franc Sentier n°23 </desc>
<link href="https://chemins.be/faytlefranc/sentier/23"/><trkseg>
<trkpt lat="50.355377" lon="3.769688"><time>2026-05-02T21:18:02Z</time></trkpt>
<trkpt lat="50.355264" lon="3.769362"><time>2026-05-02T21:28:02Z</time></trkpt>
<trkpt lat="50.353150" lon="3.766650"><time>2026-05-02T21:38:02Z</time></trkpt>
</trkseg></trk>
<trk>
<name>hhoff23</name>
<cmt>q</cmt>
<desc>Fayt-le-Franc Sentier n°23 </desc>
<link href="https://chemins.be/faytlefranc/sentier/23"/><trkseg>
<trkpt lat="50.353150" lon="3.766650"><time>2026-05-02T21:38:02Z</time></trkpt>
<trkpt lat="50.352159" lon="3.764886"><time>2026-05-02T21:48:02Z</time></trkpt>
<trkpt lat="50.349958" lon="3.760431"><time>2026-05-02T21:58:02Z</time></trkpt>
<trkpt lat="50.349761" lon="3.759779"><time>2026-05-02T22:08:02Z</time></trkpt>
<trkpt lat="50.349854" lon="3.757908"><time>2026-05-02T22:18:02Z</time></trkpt>
<trkpt lat="50.350046" lon="3.757710"><time>2026-05-02T22:28:02Z</time></trkpt>
<trkpt lat="50.350331" lon="3.754406"><time>2026-05-02T22:38:02Z</time></trkpt>
<trkpt lat="50.350051" lon="3.753814"><time>2026-05-02T22:48:02Z</time></trkpt>
</trkseg>
</trk>
<trk>
<name>hhoff23bis</name>
<cmt>q</cmt>
<desc>Fayt-le-Franc Sentier n°23bis </desc>
<link href="https://chemins.be/faytlefranc/sentier/23bis"/><trkseg>
<trkpt lat="50.349971" lon="3.760466"><time>2026-05-02T20:38:02Z</time></trkpt>
<trkpt lat="50.348977" lon="3.760509"><time>2026-05-02T20:48:02Z</time></trkpt>
</trkseg>
</trk>
<trk>
<name>hhoff25</name>
<cmt>q</cmt>
<desc>Fayt-le-Franc Sentier n°25 </desc>
<link href="https://chemins.be/faytlefranc/sentier/25"/><trkseg>
<trkpt lat="50.352351" lon="3.749621"><time>2026-05-02T20:38:02Z</time></trkpt>
<trkpt lat="50.352378" lon="3.746735"><time>2026-05-02T20:48:02Z</time></trkpt>
<trkpt lat="50.352618" lon="3.743108"><time>2026-05-02T20:58:02Z</time></trkpt>
</trkseg>
</trk>
<trk>
<name>hhoff26</name>
<cmt>q</cmt>
<desc>Fayt-le-Franc Sentier n°26 Avenue du Haut-Pays</desc>
<link href="https://chemins.be/faytlefranc/sentier/26"/><trkseg>
<trkpt lat="50.355305" lon="3.769346"><time>2026-05-02T20:38:02Z</time></trkpt>
<trkpt lat="50.355339" lon="3.767264"><time>2026-05-02T20:48:02Z</time></trkpt>
<trkpt lat="50.355770" lon="3.765408"><time>2026-05-02T20:58:02Z</time></trkpt>
</trkseg></trk>
<trk>
<name>hhoff26</name>
<cmt>r</cmt>
<desc>Fayt-le-Franc Sentier n°26 Avenue du Haut-Pays</desc>
<link href="https://chemins.be/faytlefranc/sentier/26"/><trkseg>
<trkpt lat="50.355770" lon="3.765408"><time>2026-05-02T20:58:02Z</time></trkpt>
<trkpt lat="50.355667" lon="3.765044"><time>2026-05-02T21:08:02Z</time></trkpt>
</trkseg></trk>
<trk>
<name>hhoff26</name>
<cmt>d</cmt>
<desc>Fayt-le-Franc Sentier n°26 Avenue du Haut-Pays</desc>
<link href="https://chemins.be/faytlefranc/sentier/26"/><trkseg>
<trkpt lat="50.355667" lon="3.765044"><time>2026-05-02T21:08:02Z</time></trkpt>
<trkpt lat="50.356524" lon="3.764679"><time>2026-05-02T21:18:02Z</time></trkpt>
<trkpt lat="50.357441" lon="3.763075"><time>2026-05-02T21:28:02Z</time></trkpt>
<trkpt lat="50.357448" lon="3.761755"><time>2026-05-02T21:38:02Z</time></trkpt>
<trkpt lat="50.358089" lon="3.760377"><time>2026-05-02T21:48:02Z</time></trkpt>
<trkpt lat="50.358486" lon="3.760098"><time>2026-05-02T21:58:02Z</time></trkpt>
<trkpt lat="50.358540" lon="3.759784"><time>2026-05-02T22:08:02Z</time></trkpt>
</trkseg>
</trk>
<trk>
<name>hhoff27</name>
<cmt>v</cmt>
<desc>Fayt-le-Franc Sentier n°27 </desc>
<link href="https://chemins.be/faytlefranc/sentier/27"/><trkseg>
<trkpt lat="50.357144" lon="3.768571"><time>2026-05-02T20:38:02Z</time></trkpt>
<trkpt lat="50.357436" lon="3.768238"><time>2026-05-02T20:48:02Z</time></trkpt>
</trkseg></trk>
<trk>
<name>hhoff27</name>
<cmt>d</cmt>
<desc>Fayt-le-Franc Sentier n°27 </desc>
<link href="https://chemins.be/faytlefranc/sentier/27"/><trkseg>
<trkpt lat="50.357436" lon="3.768238"><time>2026-05-02T20:48:02Z</time></trkpt>
<trkpt lat="50.358509" lon="3.763225"><time>2026-05-02T20:58:02Z</time></trkpt>
<trkpt lat="50.358058" lon="3.760394"><time>2026-05-02T21:08:02Z</time></trkpt>
<trkpt lat="50.358484" lon="3.760083"><time>2026-05-02T21:18:02Z</time></trkpt>
<trkpt lat="50.358523" lon="3.759772"><time>2026-05-02T21:28:02Z</time></trkpt>
</trkseg></trk>
<trk>
<name>hhoff27</name>
<cmt>r</cmt>
<desc>Fayt-le-Franc Sentier n°27 </desc>
<link href="https://chemins.be/faytlefranc/sentier/27"/><trkseg>
<trkpt lat="50.358523" lon="3.759772"><time>2026-05-02T21:28:02Z</time></trkpt>
<trkpt lat="50.358351" lon="3.759127"><time>2026-05-02T21:38:02Z</time></trkpt>
<trkpt lat="50.357906" lon="3.759105"><time>2026-05-02T21:48:02Z</time></trkpt>
<trkpt lat="50.357215" lon="3.757979"><time>2026-05-02T21:58:02Z</time></trkpt>
</trkseg></trk>
<trk>
<name>hhoff27</name>
<cmt>q</cmt>
<desc>Fayt-le-Franc Sentier n°27 </desc>
<link href="https://chemins.be/faytlefranc/sentier/27"/><trkseg>
<trkpt lat="50.357215" lon="3.757979"><time>2026-05-02T21:58:02Z</time></trkpt>
<trkpt lat="50.356565" lon="3.753612"><time>2026-05-02T22:08:02Z</time></trkpt>
<trkpt lat="50.359618" lon="3.747475"><time>2026-05-02T22:18:02Z</time></trkpt>
<trkpt lat="50.360576" lon="3.746746"><time>2026-05-02T22:28:02Z</time></trkpt>
</trkseg>
</trk>
<trk>
<name>hhoff28</name>
<cmt>d</cmt>
<desc>Fayt-le-Franc Sentier n°28 </desc>
<link href="https://chemins.be/faytlefranc/sentier/28"/><trkseg>
<trkpt lat="50.359221" lon="3.759513"><time>2026-05-02T20:38:02Z</time></trkpt>
<trkpt lat="50.361835" lon="3.762860"><time>2026-05-02T20:48:02Z</time></trkpt>
</trkseg>
</trk>
<trk>
<name>hhoff29</name>
<cmt>v</cmt>
<desc>Fayt-le-Franc Sentier n°29 </desc>
<link href="https://chemins.be/faytlefranc/sentier/29"/><trkseg>
<trkpt lat="50.357459" lon="3.768216"><time>2026-05-02T20:38:02Z</time></trkpt>
<trkpt lat="50.357968" lon="3.767693"><time>2026-05-02T20:48:02Z</time></trkpt>
<trkpt lat="50.358435" lon="3.767214"><time>2026-05-02T20:58:02Z</time></trkpt>
<trkpt lat="50.359578" lon="3.766775"><time>2026-05-02T21:08:02Z</time></trkpt>
<trkpt lat="50.359713" lon="3.766800"><time>2026-05-02T21:18:02Z</time></trkpt>
</trkseg>
</trk>
<trk>
<name>hhoff30</name>
<cmt>r</cmt>
<desc>Fayt-le-Franc Sentier n°30 </desc>
<link href="https://chemins.be/faytlefranc/sentier/30"/><trkseg>
<trkpt lat="50.356058" lon="3.771513"><time>2026-05-02T20:38:02Z</time></trkpt>
<trkpt lat="50.356042" lon="3.771358"><time>2026-05-02T20:48:02Z</time></trkpt>
<trkpt lat="50.355932" lon="3.771200"><time>2026-05-02T20:58:02Z</time></trkpt>
</trkseg></trk>
<trk>
<name>hhoff30</name>
<cmt>q</cmt>
<desc>Fayt-le-Franc Sentier n°30 </desc>
<link href="https://chemins.be/faytlefranc/sentier/30"/><trkseg>
<trkpt lat="50.355932" lon="3.771200"><time>2026-05-02T20:58:02Z</time></trkpt>
<trkpt lat="50.355080" lon="3.770839"><time>2026-05-02T21:08:02Z</time></trkpt>
</trkseg>
</trk>
<trk>
<name>hhoff31</name>
<cmt>v</cmt>
<desc>Fayt-le-Franc Sentier n°31 </desc>
<link href="https://chemins.be/faytlefranc/sentier/31"/><trkseg>
<trkpt lat="50.357481" lon="3.769824"><time>2026-05-02T20:38:02Z</time></trkpt>
<trkpt lat="50.356549" lon="3.770454"><time>2026-05-02T20:48:02Z</time></trkpt>
<trkpt lat="50.356309" lon="3.770864"><time>2026-05-02T20:58:02Z</time></trkpt>
</trkseg>
</trk>
<trk>
<name>hhoff32</name>
<cmt>s</cmt>
<desc>Fayt-le-Franc Sentier n°32 Avenue du Haut-Pays</desc>
<link href="https://chemins.be/faytlefranc/sentier/32"/><trkseg>
<trkpt lat="50.355235" lon="3.762667"><time>2026-05-02T20:38:02Z</time></trkpt>
<trkpt lat="50.355159" lon="3.761927"><time>2026-05-02T20:48:02Z</time></trkpt>
<trkpt lat="50.354297" lon="3.760264"><time>2026-05-02T20:58:02Z</time></trkpt>
<trkpt lat="50.354160" lon="3.759186"><time>2026-05-02T21:08:02Z</time></trkpt>
</trkseg>
</trk>
<trk>
<name>hhoff4</name>
<cmt>v</cmt>
<desc>Fayt-le-Franc Chemin n°4 </desc>
<link href="https://chemins.be/faytlefranc/chemin/4"/><trkseg>
<trkpt lat="50.357660" lon="3.770521"><time>2026-05-02T20:38:02Z</time></trkpt>
<trkpt lat="50.358441" lon="3.769791"><time>2026-05-02T20:48:02Z</time></trkpt>
<trkpt lat="50.359864" lon="3.766444"><time>2026-05-02T20:58:02Z</time></trkpt>
<trkpt lat="50.361726" lon="3.764856"><time>2026-05-02T21:08:02Z</time></trkpt>
<trkpt lat="50.361842" lon="3.762946"><time>2026-05-02T21:18:02Z</time></trkpt>
</trkseg>
</trk>
<trk>
<name>hhoff6</name>
<cmt>v</cmt>
<desc>Fayt-le-Franc Chemin n°6 </desc>
<link href="https://chemins.be/faytlefranc/chemin/6"/><trkseg>
<trkpt lat="50.355360" lon="3.769641"><time>2026-05-02T20:38:02Z</time></trkpt>
<trkpt lat="50.353170" lon="3.766680"><time>2026-05-02T20:48:02Z</time></trkpt>
<trkpt lat="50.348104" lon="3.763268"><time>2026-05-02T20:58:02Z</time></trkpt>
</trkseg>
</trk>
<trk>
<name>hhoffi1</name>
<cmt>v</cmt>
<desc>Fayt-le-Franc Chemin n°i1 </desc>
<link href="https://chemins.be/faytlefranc/chemin/i1"/><trkseg>
<trkpt lat="50.361763" lon="3.760736"><time>2026-05-02T20:38:02Z</time></trkpt>
<trkpt lat="50.361624" lon="3.760458"><time>2026-05-02T20:48:02Z</time></trkpt>
<trkpt lat="50.361468" lon="3.760065"><time>2026-05-02T20:58:02Z</time></trkpt>
<trkpt lat="50.361311" lon="3.759620"><time>2026-05-02T21:08:02Z</time></trkpt>
<trkpt lat="50.361127" lon="3.759095"><time>2026-05-02T21:18:02Z</time></trkpt>
<trkpt lat="50.361073" lon="3.758975"><time>2026-05-02T21:28:02Z</time></trkpt>
<trkpt lat="50.361010" lon="3.758914"><time>2026-05-02T21:38:02Z</time></trkpt>
<trkpt lat="50.360945" lon="3.758892"><time>2026-05-02T21:48:02Z</time></trkpt>
<trkpt lat="50.360840" lon="3.758900"><time>2026-05-02T21:58:02Z</time></trkpt>
<trkpt lat="50.360632" lon="3.758971"><time>2026-05-02T22:08:02Z</time></trkpt>
<trkpt lat="50.360422" lon="3.759050"><time>2026-05-02T22:18:02Z</time></trkpt>
<trkpt lat="50.359834" lon="3.759281"><time>2026-05-02T22:28:02Z</time></trkpt>
<trkpt lat="50.359068" lon="3.759571"><time>2026-05-02T22:38:02Z</time></trkpt>
<trkpt lat="50.358629" lon="3.759753"><time>2026-05-02T22:48:02Z</time></trkpt>
<trkpt lat="50.358564" lon="3.759766"><time>2026-05-02T22:58:02Z</time></trkpt>
<trkpt lat="50.358518" lon="3.759750"><time>2026-05-02T23:08:02Z</time></trkpt>
<trkpt lat="50.358486" lon="3.759692"><time>2026-05-02T23:18:02Z</time></trkpt>
<trkpt lat="50.358445" lon="3.759554"><time>2026-05-02T23:28:02Z</time></trkpt>
<trkpt lat="50.358402" lon="3.759349"><time>2026-05-02T23:38:02Z</time></trkpt>
<trkpt lat="50.358371" lon="3.759158"><time>2026-05-02T23:48:02Z</time></trkpt>
<trkpt lat="50.358346" lon="3.759117"><time>2026-05-02T23:58:02Z</time></trkpt>
<trkpt lat="50.358314" lon="3.759105"><time>2026-05-03T00:08:02Z</time></trkpt>
<trkpt lat="50.357916" lon="3.759131"><time>2026-05-03T00:18:02Z</time></trkpt>
<trkpt lat="50.357849" lon="3.759078"><time>2026-05-03T00:28:02Z</time></trkpt>
<trkpt lat="50.356884" lon="3.757441"><time>2026-05-03T00:38:02Z</time></trkpt>
<trkpt lat="50.356673" lon="3.757170"><time>2026-05-03T00:48:02Z</time></trkpt>
<trkpt lat="50.356518" lon="3.757046"><time>2026-05-03T00:58:02Z</time></trkpt>
<trkpt lat="50.356348" lon="3.756879"><time>2026-05-03T01:08:02Z</time></trkpt>
<trkpt lat="50.355795" lon="3.756840"><time>2026-05-03T01:18:02Z</time></trkpt>
<trkpt lat="50.355515" lon="3.756894"><time>2026-05-03T01:28:02Z</time></trkpt>
<trkpt lat="50.355248" lon="3.757141"><time>2026-05-03T01:38:02Z</time></trkpt>
<trkpt lat="50.355112" lon="3.757201"><time>2026-05-03T01:48:02Z</time></trkpt>
<trkpt lat="50.354973" lon="3.757222"><time>2026-05-03T01:58:02Z</time></trkpt>
<trkpt lat="50.354732" lon="3.757196"><time>2026-05-03T02:08:02Z</time></trkpt>
<trkpt lat="50.354508" lon="3.757141"><time>2026-05-03T02:18:02Z</time></trkpt>
<trkpt lat="50.354128" lon="3.757031"><time>2026-05-03T02:28:02Z</time></trkpt>
</trkseg>
</trk>
</gpx>